FW8315 Weather Reports


time (UTC)temp
F
wind
direction
speed
knots
gust
knots
rain 1hr
in
rain 24hr
in
rain mn
in
humidity
%
barometer
mb
20260505073017 64 27 3.5 7.8 0.00 0.00 0.00 40 1016.2
20260505072022 64 11 2.6 7.8 0.00 0.00 0.00 44 1016.1
20260505071027 64 14 2.6 6.1 0.00 0.00 0.00 43 1016.1
20260505070038 63 5 2.6 7.0 0.00 0.00 0.00 45 1016.1
20260505065020 62 27 2.6 7.0 0.00 0.00 0.00 44 1016.0
20260505064025 62 10 1.7 7.0 0.00 0.00 0.00 46 1015.8
20260505063030 62 353 0.9 3.5 0.00 0.00 0.00 46 1015.9
20260505062018 62 352 1.7 6.1 0.00 0.00 0.00 49 1015.9
20260505061024 61 4 0.9 3.5 0.00 0.00 0.00 53 1015.9
20260505060028 60 11 0.0 1.7 0.00 0.00 0.00 52 1015.9
20260505055016 59 2 1.7 3.5 0.00 0.00 0.00 53 1015.8
20260505054021 60 98 0.0 0.0 0.00 0.00 0.00 54 1015.6
20260505053026 59 99 0.0 0.0 0.00 0.00 0.00 53 1015.7
20260505052031 58 99 0.0 0.0 0.00 0.00 0.00 58 1015.6
20260505051019 56 99 0.0 0.0 0.00 0.00 0.00 58 1015.6
20260505041031 49 100 0.0 0.0 0.00 0.00 0.00 80 1015.2
20260505040020 46 100 0.0 0.0 0.00 0.00 0.00 82 1015.1
20260505035024 44 100 0.0 0.0 0.00 0.00 0.00 82 1015.2
20260505034029 41 101 0.0 0.0 0.00 0.00 0.00 82 1015.1
20260505033017 39 101 0.0 0.0 0.00 0.00 0.00 82 1015.0
20260505032022 38 101 0.0 0.0 0.00 0.00 0.00 82 1015.0
20260505031027 38 101 0.0 0.0 0.00 0.00 0.00 82 1015.1
20260505030015 38 101 0.0 0.0 0.00 0.00 0.00 82 1014.9
20260505025040 38 101 0.0 0.0 0.00 0.00 0.00 81 1014.9
20260505020030 39 101 0.0 0.0 0.00 0.00 0.00 81 1014.9
20260505015017 39 101 0.0 0.0 0.00 0.00 0.00 81 1014.7
20260505014021 39 101 0.0 0.0 0.00 0.00 0.00 81 1014.8
20260505013026 39 101 0.0 0.0 0.00 0.00 0.00 80 1014.7
20260505012031 40 101 0.0 0.0 0.00 0.00 0.00 80 1014.7
20260505011019 40 101 0.0 0.0 0.00 0.00 0.00 80 1014.7
20260505010024 40 101 0.0 0.0 0.00 0.00 0.00 80 1014.7
20260505005029 40 100 0.0 0.0 0.00 0.00 0.00 80 1014.8
20260505004017 40 100 0.0 0.0 0.00 0.00 0.00 80 1014.8
20260505003022 40 100 0.0 0.0 0.00 0.00 0.00 80 1014.7
20260505002027 40 100 0.0 0.0 0.00 0.00 0.00 80 1014.6
20260505001032 40 100 0.0 0.0 0.00 0.00 0.00 80 1014.8
20260505000020 40 100 0.0 0.0 0.00 0.00 0.00 80 1014.8
20260504235105 40 100 0.0 0.0 0.00 0.00 0.00 80 1014.9
20260504222018 41 100 0.0 0.0 0.00 0.00 0.00 79 1015.5
20260504221023 42 100 0.0 0.0 0.00 0.00 0.00 79 1015.6
20260504220028 42 100 0.0 0.0 0.00 0.00 0.00 78 1015.5
20260504215016 42 100 0.0 0.0 0.00 0.00 0.00 77 1015.6
20260504214021 42 100 0.0 0.0 0.00 0.00 0.00 78 1015.7
20260504213026 42 100 0.0 0.0 0.00 0.00 0.00 78 1015.7
20260504212031 42 100 0.0 0.0 0.00 0.00 0.00 77 1015.6
20260504211019 43 100 0.0 0.0 0.00 0.00 0.00 77 1015.6
20260504210024 43 100 0.0 0.0 0.00 0.00 0.00 76 1015.7
20260504205030 43 100 0.0 0.0 0.00 0.00 0.00 76 1015.6
20260504204017 43 100 0.0 0.0 0.00 0.00 0.00 76 1015.6
20260504203022 44 100 0.0 0.0 0.00 0.00 0.00 76 1015.5
20260504202027 44 100 0.0 0.0 0.00 0.00 0.00 76 1015.6
20260504201032 44 100 0.0 0.0 0.00 0.00 0.00 75 1015.7
20260504200020 44 100 0.0 0.0 0.00 0.00 0.00 74 1015.6
20260504195025 45 100 0.0 0.0 0.00 0.00 0.00 74 1015.6
20260504194030 45 100 0.0 0.0 0.00 0.00 0.00 73 1015.7
20260504193018 45 100 0.0 0.0 0.00 0.00 0.00 72 1015.6
20260504192023 46 100 0.0 0.0 0.00 0.00 0.00 71 1015.6
20260504191048 46 100 0.0 0.0 0.00 0.00 0.00 71 1015.7
20260504174022 51 100 0.0 0.0 0.00 0.00 0.00 60 1015.3
20260504173027 52 100 0.0 0.0 0.00 0.00 0.00 58 1015.0
20260504172032 53 100 0.0 0.0 0.00 0.00 0.00 56 1015.0
20260504171020 54 100 0.0 0.0 0.00 0.00 0.00 55 1015.0
20260504151028 62 38 4.3 8.7 0.00 0.00 0.00 48 1014.4
20260504141025 66 359 7.8 16.5 0.00 0.00 0.00 45 1013.9
20260504081016 56 329 5.2 12.2 0.00 0.00 0.00 59 1015.4